Regional Weather Roundup
Issued by NWS

Home | Current Version | Previous Version | Text Only | Print | Product List | Glossary Off
Versions: 1 2 3 4 5 6 7 8 9 10 11 12 13 14 15 16 17 18 19 20 21 22 23 24 25 26 27 28 29 30 31 32 33 34 35 36 37 38 39 40 41 42 43 44 45 46 47 48 49 50

000
ASUS43 KIND 311709
RWRIN

WEATHER ROUNDUP FOR INDIANA
NATIONAL WEATHER SERVICE INDIANAPOLIS IN
1200 PM EST SAT JAN 31 2015

NOTE: "FAIR" INDICATES FEW OR NO CLOUDS BELOW 12,000 FEET WITH NO
SIGNIFICANT WEATHER AND/OR OBSTRUCTIONS TO VISIBILITY.

* - STATION DOES NOT REPORT WEATHER SUCH AS PRECIPITATION OR FOG.

+ - STATION NOT QUALITY CONTROLLED BY THE NATIONAL WEATHER SERVICE.
    USE DATA WITH CAUTION...ESPECIALLY DEWPOINT AND RELATIVE
    HUMIDITY OBSERVATIONS.

INZ001>003-010>013-019-020-311800-
NORTHWEST INDIANA

CITY           SKY/WX    TMP DP  RH WIND       PRES   REMARKS
GARY /AIRPORT/ PTSUNNY   36  19  51 S9        30.23F
KNOX *+        SUNNY     34  10  37 SW12      30.24F WCI  25
LA PORTE +     SUNNY     35  26  68 SW10G17   30.24F WCI  27
MICHIGAN CITY+ MOSUNNY   36  18  48 SW12      30.23F
MONTICELLO +   MOSUNNY   33  24  70 SW12G20   30.28S WCI  24
RENSSELAER +   MOSUNNY   34  30  86 SW13      30.27F WCI  25
VALPARAISO     MOSUNNY   34  23  64 SW14      30.24F WCI  25

$$

LMZ046-743>745-311800-
SOUTHERN LAKE MICHIGAN

STATION/POSITION TIME  TEMP WIND        PRES
                       AIR  DIR/SP/G
                 (UTC) (F)  (DEG/KT/KT) (MB)
MICHIGAN CITY    1700   33  190/ 12/ 14   N/A

$$

INZ004-005-014>016-021>024-311800-
NORTH CENTRAL INDIANA

CITY           SKY/WX    TMP DP  RH WIND       PRES   REMARKS
ELKHART        PTSUNNY   32  19  59 SW8       30.25F WCI  25
GOSHEN         MOSUNNY   32  23  69 SW14      30.24F WCI  22
LOGANSPORT +   SUNNY     34  25  69 SW10      30.29F WCI  26
PERU/GRISSOM   SUNNY     34  25  68 SW15      30.28F WCI  24
ROCHESTER +    SUNNY     36  27  69 SW14      30.28F
SOUTH BEND     SUNNY     33  22  63 SW14      30.24F WCI  23
WARSAW +       SUNNY     34  21  60 SW12      30.26F WCI  25

$$

INZ006>009-017-018-025>027-311800-
NORTHEAST INDIANA

CITY           SKY/WX    TMP DP  RH WIND       PRES   REMARKS
ANGOLA *+      SUNNY     32  19  59 W10       30.23F WCI  24
AUBURN +       SUNNY     34  21  60 SW8       30.26F WCI  27
FORT WAYNE     PTSUNNY   32  22  66 SW14      30.29F WCI  22
HUNTINGTON +   SUNNY     33  18  55 SW10      30.28F WCI  24

$$

INZ028-029-035-036-043>045-051>053-311800-
WEST CENTRAL INDIANA

CITY           SKY/WX    TMP DP  RH WIND       PRES   REMARKS
CRAWFORDSVL +  PTSUNNY   33  19  56 SW13      30.31F WCI  23
GREENCASTLE +  PTSUNNY   32  19  59 SW6       30.33F WCI  26
LAFAYETTE      MOSUNNY   33  23  66 SW13      30.29F WCI  24
TERRE HAUTE    PTSUNNY   35  25  66 SW10      30.34F WCI  27

$$

INZ030>032-037>040-046>048-054>057-064-065-311800-
CENTRAL INDIANA

CITY           SKY/WX    TMP DP  RH WIND       PRES   REMARKS
ANDERSON       SUNNY     34  19  55 SW12      30.32F WCI  25
CP ATTERBURY + MOSUNNY   36  23  60 SW10      30.36F
FRANKFORT +    MOSUNNY   35  26  69 S14       30.31S WCI  26
GREENWOOD *+   MOSUNNY   36  19  51 SW10      30.34F
INDIANAPOLIS   CLOUDY    32  21  64 SW10      30.33F WCI  24
-EAGLE CREEK   MOSUNNY   34  21  59 SW10      30.32F WCI  26
KOKOMO *+      SUNNY     36  23  60 SW16      30.29F
MARION +       SUNNY     33  24  68 SW14      30.30F WCI  23
MT COMFORT *+  MOSUNNY   36  14  41 SW14      30.32F
SHELBYVILLE    MOSUNNY   35  22  58 SW9       30.34F WCI  28
ZIONSVILLE +   MOSUNNY   35  22  59 SW13      30.31F WCI  26

$$

INZ033-034-041-042-049-050-058-059-311800-
EAST CENTRAL INDIANA

CITY           SKY/WX    TMP DP  RH WIND       PRES   REMARKS
MUNCIE         SUNNY     33  22  63 SW12      30.30F WCI  24

$$

INZ060-061-067>069-081>083-085>088-311800-
SOUTHWEST INDIANA

CITY           SKY/WX    TMP DP  RH WIND       PRES   REMARKS
EVANSVILLE     CLOUDY    38  24  57 S6        30.40F
HUNTINGBURG *+ CLOUDY    36  25  64 SW9       30.40F
WASHINGTON +   CLOUDY    36  22  57 SW7       30.37F

$$

INZ062-063-066-070>080-084-089>092-311800-
SOUTH CENTRAL AND SOUTHEAST INDIANA

CITY           SKY/WX    TMP DP  RH WIND       PRES   REMARKS
BLOOMINGTON    PTSUNNY   35  22  58 SW8       30.35F WCI  29
NORTH VERNON + PTSUNNY   34  21  60 SW9       30.37F WCI  26
SEYMOUR +      PTSUNNY   36  23  60 S7        30.38F

$$



USA.gov is the U.S. government's official web portal to all federal, state and local government web resources and services.